Time,TemperatureF,DewpointF,PressureIn,WindDirection,WindDirectionDegrees,WindSpeedMPH,WindSpeedGustMPH,Humidity,HourlyPrecipIn,Conditions,Clouds,dailyrainin,SoftwareType,DateUTC
2013-05-21 19:32:00,43.0,20.9,29.84,WNW,282,3.5,10.9,41,0.00,CLR,SCT,0.00,WeatherDisplay:10.37,2013-05-22 02:32:00,
2013-05-21 19:33:00,43.0,20.9,29.84,WSW,256,3.5,13.2,41,0.00,CLR,SCT,0.00,WeatherDisplay:10.37,2013-05-22 02:33:00,
2013-05-21 19:34:00,43.0,20.9,29.84,WSW,250,15.0,15.0,41,0.00,CLR,SCT,0.00,WeatherDisplay:10.37,2013-05-22 02:34:00,
2013-05-21 19:39:00,42.4,20.9,29.84,West,275,21.9,21.9,42,0.00,CLR,SCT,0.00,WeatherDisplay:10.37,2013-05-22 02:39:00,
2013-05-21 19:44:00,42.3,21.3,29.84,WNW,282,11.5,11.5,43,0.00,CLR,SCT,0.00,WeatherDisplay:10.37,2013-05-22 02:44:00,
2013-05-21 19:49:00,42.1,21.2,29.84,WSW,250,13.8,13.8,43,0.00,CLR,SCT,0.00,WeatherDisplay:10.37,2013-05-22 02:49:00,
2013-05-21 19:54:00,41.9,21.5,29.84,West,281,13.8,13.8,44,0.00,CLR,SCT,0.00,WeatherDisplay:10.37,2013-05-22 02:54:00,
2013-05-21 20:00:00,41.9,21.5,29.84,West,269,8.0,14.0,44,0.00,CLR,SCT,0.00,WeatherDisplay:10.37,2013-05-22 03:00:00,
2013-05-21 20:05:00,41.7,21.4,29.87,WSW,254,12.7,12.7,44,0.00,CLR,SCT,0.00,WeatherDisplay:10.37,2013-05-22 03:05:00,
2013-05-21 20:10:00,41.7,21.4,29.87,West,269,9.2,9.2,44,0.00,CLR,SCT,0.00,WeatherDisplay:10.37,2013-05-22 03:10:00,
2013-05-21 20:15:00,41.5,21.2,29.87,West,278,15.0,15.0,44,0.00,CLR,SCT,0.00,WeatherDisplay:10.37,2013-05-22 03:15:00,
2013-05-21 20:20:00,41.4,21.1,29.87,WSW,255,15.0,15.0,44,0.00,CLR,SCT,0.00,WeatherDisplay:10.37,2013-05-22 03:20:00,
2013-05-21 20:25:00,41.2,20.9,29.87,West,265,13.8,13.8,44,0.00,CLR,SCT,0.00,WeatherDisplay:10.37,2013-05-22 03:25:00,
2013-05-21 20:31:00,41.2,20.9,29.87,WSW,241,8.1,8.1,44,0.00,CLR,SCT,0.00,WeatherDisplay:10.37,2013-05-22 03:31:00,
2013-05-21 20:36:00,41.0,21.3,29.87,West,272,5.8,5.8,45,0.00,CLR,SCT,0.00,WeatherDisplay:10.37,2013-05-22 03:36:00,
2013-05-21 20:41:00,40.8,21.1,29.87,WNW,286,8.1,8.1,45,0.00,CLR,SCT,0.00,WeatherDisplay:10.37,2013-05-22 03:41:00,
2013-05-21 20:46:00,40.5,20.8,29.87,WSW,247,10.4,10.4,45,0.00,CLR,SCT,0.00,WeatherDisplay:10.37,2013-05-22 03:46:00,
2013-05-21 20:52:00,40.1,19.9,29.87,WSW,240,10.9,10.9,44,0.00,CLR,SCT,0.00,WeatherDisplay:10.37,2013-05-22 03:52:00,
2013-05-21 20:57:00,39.9,19.7,29.87,WSW,256,8.1,8.1,44,0.00,CLR,SCT,0.00,WeatherDisplay:10.37,2013-05-22 03:57:00,
2013-05-21 21:01:00,39.7,19.6,29.87,SW,224,12.7,12.7,44,0.00,CLR,SCT,0.00,WeatherDisplay:10.37,2013-05-22 04:01:00,
2013-05-21 21:02:00,39.7,19.6,29.87,WSW,253,10.4,10.4,44,0.00,CLR,SCT,0.00,WeatherDisplay:10.37,2013-05-22 04:02:00,
2013-05-21 21:07:00,39.6,19.4,29.87,WSW,256,10.4,10.4,44,0.00,CLR,SCT,0.00,WeatherDisplay:10.37,2013-05-22 04:07:00,
2013-05-21 21:12:00,39.4,19.8,29.87,WSW,255,10.4,10.4,45,0.00,CLR,SCT,0.00,WeatherDisplay:10.37,2013-05-22 04:12:00,
2013-05-21 21:17:00,39.2,19.6,29.87,West,280,8.1,8.1,45,0.00,CLR,SCT,0.00,WeatherDisplay:10.37,2013-05-22 04:17:00,
2013-05-21 21:23:00,39.0,20.0,29.87,West,272,15.0,15.0,46,0.00,CLR,SCT,0.00,WeatherDisplay:10.37,2013-05-22 04:23:00,
2013-05-21 21:28:00,38.8,19.3,29.87,WSW,253,13.2,13.2,45,0.00,CLR,SCT,0.00,WeatherDisplay:10.37,2013-05-22 04:28:00,
2013-05-21 21:33:00,38.7,19.6,29.87,SW,236,13.8,13.8,46,0.00,CLR,SCT,0.00,WeatherDisplay:10.37,2013-05-22 04:33:00,
2013-05-21 21:38:00,38.7,19.6,29.87,West,262,17.3,17.3,46,0.00,CLR,SCT,0.00,WeatherDisplay:10.37,2013-05-22 04:38:00,
2013-05-21 21:43:00,38.5,19.0,29.87,WSW,242,15.0,15.0,45,0.00,CLR,SCT,0.00,WeatherDisplay:10.37,2013-05-22 04:43:00,
2013-05-21 21:48:00,38.5,19.0,29.87,SW,232,11.5,11.5,45,0.00,CLR,SCT,0.00,WeatherDisplay:10.37,2013-05-22 04:48:00,
2013-05-21 21:54:00,38.5,19.0,29.87,WSW,239,9.2,9.2,45,0.00,CLR,SCT,0.00,WeatherDisplay:10.37,2013-05-22 04:54:00,
2013-05-21 21:59:00,38.3,18.8,29.87,WSW,242,12.7,12.7,45,0.00,CLR,SCT,0.00,WeatherDisplay:10.37,2013-05-22 04:59:00,
2013-05-21 22:04:00,38.1,18.6,29.87,SW,236,10.4,10.4,45,0.00,CLR,SCT,0.00,WeatherDisplay:10.37,2013-05-22 05:04:00,
2013-05-21 22:09:00,38.1,19.1,29.87,WSW,256,10.4,10.4,46,0.00,CLR,SCT,0.00,WeatherDisplay:10.37,2013-05-22 05:09:00,
2013-05-21 22:14:00,38.1,18.6,29.87,WSW,247,8.0,14.0,45,0.00,CLR,SCT,0.00,WeatherDisplay:10.37,2013-05-22 05:14:00,
2013-05-21 22:19:00,38.1,18.6,29.87,WSW,254,10.4,10.4,45,0.00,CLR,SCT,0.00,WeatherDisplay:10.37,2013-05-22 05:19:00,
2013-05-21 22:24:00,38.1,18.6,29.90,WSW,258,5.8,5.8,45,0.00,CLR,SCT,0.00,WeatherDisplay:10.37,2013-05-22 05:24:00,
2013-05-21 22:29:00,38.1,18.6,29.90,West,262,6.9,6.9,45,0.00,CLR,SCT,0.00,WeatherDisplay:10.37,2013-05-22 05:29:00,
2013-05-21 22:34:00,38.1,19.1,29.90,West,275,5.8,5.8,46,0.00,CLR,SCT,0.00,WeatherDisplay:10.37,2013-05-22 05:34:00,
2013-05-21 22:39:00,38.1,18.6,29.90,West,259,12.7,12.7,45,0.00,CLR,SCT,0.00,WeatherDisplay:10.37,2013-05-22 05:39:00,
2013-05-21 22:45:00,38.1,18.6,29.90,WSW,238,8.3,8.3,45,0.00,CLR,SCT,0.00,WeatherDisplay:10.37,2013-05-22 05:45:00,
2013-05-21 22:50:00,38.1,19.1,29.87,WSW,250,12.7,12.7,46,0.00,CLR,SCT,0.00,WeatherDisplay:10.37,2013-05-22 05:50:00,
2013-05-21 22:55:00,37.9,19.0,29.87,West,270,10.4,10.4,46,0.00,CLR,SCT,0.00,WeatherDisplay:10.37,2013-05-22 05:55:00,
2013-05-21 23:00:00,37.9,19.5,29.87,WSW,246,12.7,12.7,47,0.00,CLR,SCT,0.00,WeatherDisplay:10.37,2013-05-22 06:00:00,
2013-05-21 23:05:00,37.9,19.5,29.87,West,262,9.2,9.2,47,0.00,CLR,SCT,0.00,WeatherDisplay:10.37,2013-05-22 06:05:00,
2013-05-21 23:10:00,37.6,19.6,29.87,SW,231,8.1,8.1,48,0.00,CLR,SCT,0.00,WeatherDisplay:10.37,2013-05-22 06:10:00,
2013-05-21 23:15:00,37.6,19.1,29.87,WSW,240,12.7,12.7,47,0.00,CLR,SCT,0.00,WeatherDisplay:10.37,2013-05-22 06:15:00,
2013-05-21 23:20:00,37.4,19.5,29.87,SW,225,8.1,8.1,48,0.00,CLR,SCT,0.00,WeatherDisplay:10.37,2013-05-22 06:20:00,
2013-05-21 23:25:00,37.4,20.0,29.87,SW,236,8.3,8.3,49,0.00,CLR,SCT,0.00,WeatherDisplay:10.37,2013-05-22 06:25:00,
2013-05-21 23:30:00,37.4,20.0,29.87,SSW,212,5.8,5.8,49,0.00,CLR,SCT,0.00,WeatherDisplay:10.37,2013-05-22 06:30:00,
2013-05-21 23:36:00,37.2,19.3,29.87,WSW,249,7.6,7.6,48,0.00,CLR,SCT,0.00,WeatherDisplay:10.37,2013-05-22 06:36:00,
2013-05-21 23:41:00,37.2,19.3,29.87,West,265,5.8,5.8,48,0.00,CLR,SCT,0.00,WeatherDisplay:10.37,2013-05-22 06:41:00,
2013-05-21 23:46:00,37.2,18.3,29.87,West,262,9.2,9.2,46,0.00,CLR,SCT,0.00,WeatherDisplay:10.37,2013-05-22 06:46:00,
2013-05-21 23:51:00,37.2,18.8,29.90,West,268,8.1,8.1,47,0.00,CLR,SCT,0.00,WeatherDisplay:10.37,2013-05-22 06:51:00,
2013-05-21 23:56:00,37.2,18.3,29.90,West,269,5.8,5.8,46,0.00,CLR,SCT,0.00,WeatherDisplay:10.37,2013-05-22 06:56:00,